Location: Schommer Observatory
(40.5200°N, 74.4500°W)
Time: 02:38:34
(UTC-04:00)

OTV 5 (USA 277) - Pass Details

Date: 09 October 2017
Orbit: 404 x 417 km, 43.0° (Epoch: 07 September)

Event Time Altitude Azimuth Distance (km) Brightness Sun altitude
Rises 18:57:25 0° 209° (SSW) 2,341 ? -6.7°
Reaches altitude 10° 18:59:59 10° 188° (S) 1,483 ? -7.2°
Maximum altitude 19:02:17 17° 145° (SE) 1,121 ? -7.6°
Enters shadow 19:04:34 10° 102° (ESE) 1,481 ? -8.0°
